Temp
9 10 9 8 8 8 8 7 7 7 7 7 8 8 7 6 4 4 4 4 4 4 4 5 4 5 5
8 8 8 7 7 8 7 7 7 7 7 7 7 7 7 6 5 4 4 4 4 4 4 4 4 4 4
8 8 8 8 8 8 7 7 7 6 6 5 5 5 6 5 4 3 3 3 3 3 3 4 4 4 4
8 8 8 8 7 7 6 6 6 5 5 4 5 5 5 4 4 3 2 2 3 2 2 3 3 3 4
9 9 8 8 8 8 6 6 5 5 5 5 5 5 4 3 3 3 3 2 2 2 2 2 3 3 3
9 9 8 8 8 7 6 5 4 5 5 5 5 5 4 2 2 2 2 2 1 1 2 2 3 3 3
8 8 8 9 8 8 6 6 6 6 6 5 4 4 3 2 2 2 1 1 1 1 2 2 3 3 3
7 7 8 8 8 8 7 6 4 4 3 4 3 2 2 2 1 1 1 1 0 1 2 2 3 3 3
7 6 6 6 6 6 6 4 4 4 4 4 3 2 1 1 1 0 0 0 0 2 2 2 2 3 3
6 5 5 5 5 5 6 4 5 3 5 4 3 2 0 1 0 -0 -0 -0 0 1 1 1 2 2 2
4 5 4 5 5 4 5 4 6 5 4 3 2 0 1 1 -0 -1 -1 -0 0 1 0 1 1 2 2
3 3 4 4 4 3 5 3 2 2 2 2 2 1 0 0 1 -1 -1 -0 0 0 0 1 1 1 1
2 2 3 3 3 2 2 2 1 0 0 -0 0 1 -0 -1 1 2 1 0 0 0 0 0 1 1 1
1 1 2 1 1 1 1 1 0 -1 -1 -1 -1 -0 -1 -1 -1 1 1 1 0 0 0 0 1 1 1
-0 1 0 0 -0 0 0 -0 -1 -1 -1 -2 -2 -2 -1 -1 -0 -0 0 0 1 1 1 0 0 1 0
-1 -0 -0 -0 -1 -1 -0 -0 -1 -1 -2 -2 -2 -2 -2 -2 -1 -1 -0 -0 0 0 -0 -0 0 0 -0
-1 -2 -1 -1 -1 -1 -2 -2 -2 -2 -2 -2 -2 -2 -2 -2 -1 -1 -1 -1 -0 -1 -0 -0 -0 -1 -1
Height
1454 1459 1459 1462 1467 1473 1477 1482 1487 1491 1492 1492 1491 1490 1490 1491 1493 1494 1495 1495 1495 1496 1494 1493 1494 1491 1491
1448 1452 1454 1457 1462 1469 1472 1475 1479 1483 1485 1486 1485 1484 1484 1483 1486 1490 1490 1489 1490 1491 1490 1487 1488 1487 1486
1445 1447 1449 1452 1458 1462 1465 1469 1473 1476 1478 1477 1477 1477 1477 1477 1480 1483 1485 1484 1483 1483 1484 1482 1482 1482 1483
1439 1442 1445 1448 1452 1454 1458 1461 1466 1469 1471 1470 1470 1470 1471 1473 1475 1478 1479 1480 1480 1479 1479 1477 1477 1478 1479
1429 1432 1434 1436 1440 1444 1450 1454 1458 1461 1463 1462 1464 1464 1464 1468 1469 1472 1472 1473 1473 1473 1473 1472 1473 1474 1476
1420 1421 1424 1430 1432 1432 1440 1445 1451 1452 1453 1454 1459 1458 1460 1463 1465 1466 1468 1470 1468 1469 1468 1469 1470 1471 1472
1410 1411 1416 1417 1422 1425 1430 1437 1439 1444 1446 1447 1450 1453 1454 1458 1457 1460 1463 1463 1464 1463 1463 1465 1466 1467 1468
1399 1405 1406 1410 1411 1415 1423 1430 1435 1438 1439 1438 1444 1448 1450 1453 1454 1455 1457 1458 1459 1460 1459 1462 1464 1464 1465
1391 1394 1396 1401 1404 1405 1409 1422 1424 1425 1428 1429 1436 1442 1444 1447 1449 1451 1452 1453 1453 1454 1458 1456 1460 1462 1462
1383 1384 1387 1393 1397 1400 1403 1410 1413 1419 1418 1420 1427 1435 1440 1440 1442 1445 1447 1447 1449 1449 1453 1454 1457 1458 1459
1375 1377 1379 1383 1387 1393 1396 1402 1404 1409 1412 1412 1417 1425 1429 1433 1434 1438 1442 1444 1445 1447 1450 1452 1454 1456 1457
1367 1368 1371 1373 1379 1385 1388 1396 1401 1403 1408 1407 1411 1417 1423 1427 1428 1432 1435 1438 1441 1444 1447 1450 1451 1454 1455
1358 1361 1364 1368 1372 1374 1382 1385 1392 1396 1400 1403 1406 1412 1418 1423 1425 1425 1427 1431 1436 1440 1444 1448 1449 1452 1455
1350 1353 1357 1360 1363 1368 1372 1376 1383 1389 1391 1397 1403 1407 1412 1417 1420 1420 1424 1428 1430 1434 1440 1445 1447 1449 1453
1343 1344 1348 1352 1357 1359 1363 1370 1374 1379 1384 1390 1397 1403 1408 1412 1414 1417 1419 1423 1428 1431 1435 1441 1444 1446 1450
1335 1338 1340 1343 1349 1352 1357 1363 1368 1375 1381 1385 1390 1396 1401 1407 1411 1413 1416 1421 1424 1429 1432 1437 1439 1443 1446
1328 1332 1335 1336 1339 1347 1352 1357 1363 1369 1376 1382 1384 1389 1394 1399 1403 1408 1413 1417 1421 1426 1429 1432 1435 1439 1443
Wind_Speed
38 41 42 43 42 30 24 22 22 21 20 19 18 18 19 18 19 17 16 15 17 18 17 16 17 18 15
32 33 31 35 29 24 22 22 22 23 23 22 20 19 19 18 20 17 17 17 16 18 17 16 17 15 13
21 22 26 26 27 27 27 27 30 27 26 22 20 18 19 19 18 18 17 16 18 19 18 16 15 13 12
29 28 28 30 33 34 34 35 32 29 25 21 22 21 18 18 18 16 16 16 16 15 16 17 13 11 11
37 37 39 40 40 39 39 35 30 29 25 25 23 21 18 21 20 18 17 17 16 17 16 10 9 10 11
35 48 42 32 39 46 41 34 34 33 29 24 23 22 19 21 17 18 17 17 16 15 11 9 9 10 11
34 38 40 43 43 37 38 37 34 25 16 17 22 21 19 20 19 18 18 17 16 13 10 9 10 10 10
34 35 35 37 41 37 31 29 26 25 23 20 19 19 20 20 20 20 19 17 15 12 9 8 9 10 10
31 31 28 28 30 30 29 31 32 32 26 22 20 20 20 21 21 20 19 17 14 10 9 8 9 9 10
27 26 24 26 26 30 30 36 32 31 28 26 25 20 17 23 23 22 20 17 15 12 10 8 9 9 9
30 29 30 32 31 32 30 32 35 34 22 29 27 26 21 9 25 24 21 17 15 12 12 11 10 9 7
28 30 33 30 30 30 30 30 29 26 28 21 20 23 27 22 11 23 22 19 17 13 13 13 11 10 9
28 29 30 31 31 29 31 30 27 26 25 23 22 17 21 28 24 15 19 23 19 17 16 15 14 12 10
30 30 31 31 30 31 30 30 29 29 27 26 23 22 21 23 22 18 16 15 22 21 18 17 15 14 12
30 28 32 32 36 33 30 29 31 32 31 30 27 26 23 19 20 21 19 20 16 21 20 18 16 13 13
30 30 32 30 33 33 32 33 34 33 33 32 30 28 26 24 22 21 22 22 17 23 19 17 15 14 14
28 31 30 28 32 35 35 34 33 31 31 30 30 29 30 29 25 24 23 24 23 19 17 15 14 14 14
Wind_Direction
238 242 229 224 227 218 218 222 229 231 237 243 252 259 259 258 256 264 266 263 271 280 283 291 301 307 301
239 228 225 218 212 215 220 225 232 237 240 245 252 254 253 247 248 256 260 263 270 273 278 286 297 301 298
232 214 207 201 205 215 220 225 229 230 237 244 249 254 255 238 237 251 260 262 264 270 276 283 291 287 291
238 234 228 218 217 218 218 224 224 228 235 245 244 251 245 241 240 247 256 265 270 275 280 286 274 276 277
247 241 233 220 222 226 222 224 225 231 240 247 249 246 235 234 239 242 251 257 264 274 281 272 262 266 265
247 250 244 241 227 220 220 218 223 231 235 246 243 243 234 236 241 244 251 261 266 277 281 258 254 255 254
258 246 243 241 237 225 229 229 231 234 232 241 239 235 230 234 236 243 248 253 260 268 265 254 246 246 244
252 257 256 250 233 237 231 229 232 234 237 240 240 229 228 232 237 238 240 244 252 261 258 244 242 234 231
249 248 250 245 233 207 207 214 218 231 232 239 236 227 226 232 234 234 233 238 244 245 245 230 230 220 221
247 232 228 228 222 218 213 219 224 230 230 226 224 221 225 230 227 226 228 231 234 233 221 208 202 205 209
245 236 226 219 220 221 218 230 228 236 235 220 221 218 214 224 218 218 223 225 224 222 204 198 189 192 186
243 234 228 225 223 219 219 228 236 238 236 222 222 220 217 213 199 209 211 214 215 206 199 196 187 183 179
237 231 229 224 221 215 221 222 224 216 218 222 222 220 219 222 216 201 202 207 206 202 199 196 191 185 185
239 235 228 229 221 220 218 218 216 214 210 213 216 213 213 215 216 210 209 200 201 196 196 200 195 193 199
240 232 233 226 222 221 220 220 216 214 210 207 209 210 209 213 210 204 201 199 195 195 195 199 199 206 213
246 243 235 227 225 219 218 218 217 215 213 208 207 205 206 210 209 204 200 196 192 189 192 203 206 212 215
253 244 238 231 221 216 213 212 211 213 213 214 211 210 206 206 206 204 204 197 193 192 196 202 202 206 211